When you browse on this site, cookies collect data to enhance your experience and personalize the content and advertising you see.
Visit our Privacy Policy to learn more. By continuing to use the site, you agree to this use of cookies and data.
  • En España
  • Lista de países
  • Para 7 días
  • Temperatura del agua
  • El tiempo en el mapa
  • Informadores
  • user-avatar
    Iniciar sesión

    Tiempo cada hora Romny

    Hoy, 7 Junio, Domingo

    Tiempo Temperatura Precipitaciones Viento Presión Humedad
    00:00 +18°C° 0 mm 3 mps 747 mmHg 85%
    01:00 +17°C° 0 mm 3 mps 747 mmHg 85%
    02:00 +16°C° 0 mm 3 mps 747 mmHg 85%
    03:00 +16°C° 0 mm 3 mps 747 mmHg 86%
    04:00 +16°C° 0 mm 2 mps 747 mmHg 87%
    05:00 +16°C° 0 mm 2 mps 747 mmHg 87%
    06:00 +18°C° 0 mm 2 mps 748 mmHg 85%
    07:00 +20°C° 0 mm 2 mps 748 mmHg 82%
    08:00 +21°C° 0 mm 3 mps 748 mmHg 79%
    09:00 +24°C° 0 mm 3 mps 748 mmHg 76%
    10:00 +25°C° 0 mm 3 mps 748 mmHg 73%
    11:00 +26°C° 0 mm 3 mps 748 mmHg 70%
    12:00 +27°C° 0 mm 3 mps 748 mmHg 68%
    13:00 +27°C° 0 mm 3 mps 749 mmHg 67%
    14:00 +27°C° 0 mm 3 mps 749 mmHg 65%
    15:00 +27°C° 0 mm 3 mps 748 mmHg 68%
    16:00 +27°C° 0 mm 3 mps 748 mmHg 71%
    17:00 +26°C° 0 mm 3 mps 748 mmHg 74%
    18:00 +24°C° 0 mm 3 mps 748 mmHg 77%
    19:00 +23°C° 0 mm 2 mps 748 mmHg 80%
    20:00 +20°C° 0 mm 2 mps 748 mmHg 84%
    21:00 +19°C° 0 mm 2 mps 748 mmHg 84%
    22:00 +18°C° 0 mm 2 mps 748 mmHg 84%
    23:00 +17°C° 0 mm 2 mps 748 mmHg 85%

    Mañana, 8 Junio, Lunes

    Tiempo Temperatura Precipitaciones Viento Presión Humedad
    00:00 +17°C° 0 mm 2 mps 748 mmHg 85%
    01:00 +17°C° 0 mm 2 mps 748 mmHg 86%
    02:00 +17°C° 0 mm 2 mps 748 mmHg 86%
    03:00 +17°C° 0 mm 2 mps 748 mmHg 87%
    04:00 +17°C° 0 mm 2 mps 748 mmHg 88%
    05:00 +17°C° 0 mm 2 mps 748 mmHg 88%
    06:00 +19°C° 0 mm 3 mps 748 mmHg 85%
    07:00 +21°C° 0 mm 3 mps 748 mmHg 83%
    08:00 +24°C° 0 mm 3 mps 748 mmHg 80%
    09:00 +25°C° 0 mm 3 mps 748 mmHg 75%
    10:00 +26°C° 0 mm 4 mps 748 mmHg 71%
    11:00 +27°C° 0 mm 4 mps 748 mmHg 66%
    12:00 +27°C° 0 mm 4 mps 748 mmHg 65%
    13:00 +28°C° 0 mm 4 mps 748 mmHg 65%
    14:00 +28°C° 0 mm 4 mps 747 mmHg 64%
    15:00 +28°C° 0 mm 4 mps 747 mmHg 67%
    16:00 +28°C° 0 mm 3 mps 747 mmHg 71%
    17:00 +27°C° 0 mm 3 mps 747 mmHg 74%
    18:00 +26°C° 0 mm 3 mps 747 mmHg 77%
    19:00 +24°C° 0 mm 3 mps 747 mmHg 80%
    20:00 +21°C° 0 mm 3 mps 747 mmHg 83%
    21:00 +20°C° 0 mm 3 mps 747 mmHg 85%
    22:00 +20°C° 0 mm 3 mps 747 mmHg 86%
    23:00 +19°C° 0 mm 4 mps 747 mmHg 88%

    Pasado mañana, 9 Junio, Martes

    Tiempo Temperatura Precipitaciones Viento Presión Humedad
    00:00 +19°C° 0 mm 3 mps 747 mmHg 88%
    01:00 +18°C° 0 mm 3 mps 747 mmHg 89%
    02:00 +18°C° 0 mm 3 mps 747 mmHg 89%
    03:00 +18°C° 0 mm 3 mps 747 mmHg 89%
    04:00 +18°C° 0 mm 3 mps 747 mmHg 89%
    05:00 +18°C° 0 mm 3 mps 747 mmHg 89%
    06:00 +20°C° 0 mm 3 mps 747 mmHg 85%
    07:00 +21°C° 0 mm 4 mps 747 mmHg 82%
    08:00 +23°C° 0 mm 4 mps 747 mmHg 78%
    09:00 +25°C° 0 mm 4 mps 747 mmHg 74%
    10:00 +27°C° 0 mm 5 mps 747 mmHg 70%
    11:00 +28°C° 0 mm 5 mps 747 mmHg 66%
    12:00 +28°C° 0 mm 5 mps 747 mmHg 65%
    13:00 +29°C° 0 mm 5 mps 747 mmHg 64%
    14:00 +29°C° 0 mm 5 mps 747 mmHg 63%
    15:00 +29°C° 0 mm 4 mps 747 mmHg 67%
    16:00 +29°C° 0 mm 4 mps 747 mmHg 71%
    17:00 +28°C° 0 mm 3 mps 747 mmHg 75%
    18:00 +27°C° 0 mm 3 mps 747 mmHg 78%
    19:00 +25°C° 0 mm 3 mps 747 mmHg 81%
    20:00 +22°C° 0 mm 3 mps 747 mmHg 84%
    21:00 +21°C° 0 mm 3 mps 747 mmHg 85%
    22:00 +21°C° 0 mm 3 mps 747 mmHg 87%
    23:00 +20°C° 0 mm 3 mps 747 mmHg 88%

    10 Junio, Miércoles

    Tiempo Temperatura Precipitaciones Viento Presión Humedad
    00:00 +20°C° 0 mm 3 mps 747 mmHg 89%
    01:00 +19°C° 0 mm 3 mps 747 mmHg 90%
    02:00 +19°C° 0 mm 3 mps 747 mmHg 90%
    03:00 +19°C° 0 mm 3 mps 747 mmHg 90%
    04:00 +19°C° 0 mm 3 mps 747 mmHg 89%
    05:00 +19°C° 0 mm 3 mps 747 mmHg 89%
    06:00 +21°C° 0 mm 3 mps 747 mmHg 86%
    07:00 +22°C° 0 mm 3 mps 747 mmHg 82%
    08:00 +25°C° 0 mm 4 mps 747 mmHg 79%
    09:00 +26°C° 0 mm 4 mps 747 mmHg 74%
    10:00 +27°C° 0 mm 4 mps 747 mmHg 70%
    11:00 +29°C° 0 mm 4 mps 747 mmHg 65%
    12:00 +29°C° 0 mm 4 mps 747 mmHg 63%
    13:00 +29°C° 0 mm 4 mps 747 mmHg 62%
    14:00 +30°C° 0 mm 4 mps 746 mmHg 60%
    15:00 +30°C° 0 mm 4 mps 746 mmHg 65%
    16:00 +29°C° 0 mm 3 mps 746 mmHg 69%
    17:00 +29°C° 0 mm 3 mps 746 mmHg 73%
    18:00 +27°C° 0 mm 3 mps 746 mmHg 76%
    19:00 +26°C° 0 mm 3 mps 746 mmHg 79%
    20:00 +24°C° 0 mm 3 mps 746 mmHg 82%
    21:00 +22°C° 0 mm 3 mps 746 mmHg 84%
    22:00 +22°C° 0 mm 3 mps 746 mmHg 85%
    23:00 +21°C° 0 mm 3 mps 746 mmHg 86%

    11 Junio, Jueves

    Tiempo Temperatura Precipitaciones Viento Presión Humedad
    00:00 +21°C° 0 mm 3 mps 746 mmHg 87%
    01:00 +20°C° 0 mm 3 mps 746 mmHg 89%
    02:00 +20°C° 0 mm 3 mps 746 mmHg 90%
    03:00 +20°C° 0 mm 3 mps 745 mmHg 90%
    04:00 +20°C° 0 mm 3 mps 745 mmHg 90%
    05:00 +20°C° 0 mm 3 mps 745 mmHg 90%
    06:00 +22°C° 0 mm 3 mps 745 mmHg 87%
    07:00 +24°C° 0 mm 3 mps 745 mmHg 84%
    08:00 +26°C° 0 mm 4 mps 745 mmHg 80%
    09:00 +27°C° 0 mm 4 mps 745 mmHg 75%
    10:00 +28°C° 0 mm 4 mps 745 mmHg 70%
    11:00 +29°C° 0 mm 4 mps 745 mmHg 65%
    12:00 +30°C° 0 mm 5 mps 745 mmHg 65%
    13:00 +30°C° 0 mm 5 mps 745 mmHg 65%
    14:00 +30°C° 0 mm 5 mps 744 mmHg 66%
    15:00 +30°C° 0.1 mm 5 mps 744 mmHg 70%
    16:00 +29°C° 0.1 mm 4 mps 744 mmHg 74%
    17:00 +29°C° 0.1 mm 4 mps 744 mmHg 78%
    18:00 +27°C° 0.1 mm 4 mps 744 mmHg 81%
    19:00 +25°C° 0.1 mm 3 mps 744 mmHg 83%
    20:00 +24°C° 0.1 mm 3 mps 744 mmHg 86%
    21:00 +22°C° 0 mm 3 mps 743 mmHg 87%
    22:00 +21°C° 0 mm 3 mps 743 mmHg 88%
    23:00 +20°C° 0 mm 4 mps 743 mmHg 89%

    12 Junio, Viernes

    Tiempo Temperatura Precipitaciones Viento Presión Humedad
    00:00 +20°C° 0 mm 3 mps 743 mmHg 90%
    01:00 +19°C° 0 mm 3 mps 743 mmHg 90%
    02:00 +19°C° 0 mm 3 mps 743 mmHg 91%
    03:00 +19°C° 0 mm 3 mps 743 mmHg 89%
    04:00 +19°C° 0 mm 3 mps 743 mmHg 88%
    05:00 +19°C° 0 mm 3 mps 743 mmHg 86%
    06:00 +20°C° 0 mm 4 mps 743 mmHg 83%
    07:00 +22°C° 0 mm 4 mps 743 mmHg 79%
    08:00 +23°C° 0 mm 5 mps 743 mmHg 75%
    09:00 +26°C° 0 mm 5 mps 743 mmHg 72%
    10:00 +28°C° 0 mm 5 mps 743 mmHg 69%
    11:00 +29°C° 0 mm 5 mps 743 mmHg 65%
    12:00 +30°C° 0 mm 5 mps 743 mmHg 63%
    13:00 +30°C° 0 mm 5 mps 743 mmHg 61%
    14:00 +32°C° 0 mm 5 mps 743 mmHg 59%
    15:00 +30°C° 0 mm 5 mps 743 mmHg 63%
    16:00 +30°C° 0 mm 4 mps 743 mmHg 68%
    17:00 +29°C° 0 mm 4 mps 743 mmHg 72%
    18:00 +28°C° 0 mm 4 mps 743 mmHg 75%
    19:00 +26°C° 0 mm 4 mps 743 mmHg 78%
    20:00 +23°C° 0 mm 4 mps 743 mmHg 81%
    21:00 +22°C° 0 mm 4 mps 743 mmHg 82%
    22:00 +22°C° 0 mm 4 mps 743 mmHg 83%
    23:00 +21°C° 0 mm 4 mps 743 mmHg 84%
    Mostrar más